Flag for Canada Weather past 2 weeks in Annapolis County, Nova Scotia, Canada

Now
45 °F

Quite cool.


Feels Like: 40 °F
Forecast: 44 / 46 °F
Wind: 9 mph from Northeast

Location: Kejimkujik 1

Current Time: Jun 2, 2015 at 2:38:33 PM

Latest Report: Jun 2, 2015 at 2:00 PM


Visibility: N/A

Pressure: 30.20 "Hg

Humidity: 95%

Dew point: 44 °F

Location of Annapolis CountyLocation

Historic Weather in Annapolis County — Graph

°F

Annapolis County temperature yesterday

Maximum temperature yesterday: 47 °F (at 1:00 PM)
Minimum temperature yesterday: 42 °F (at 11:00 PM)
Average temperature yesterday: 45 °F

Past Weeks' High & Low Weather Summary

 TemperatureHumidityPressure
High79 °F (May 30, 4:00 PM)100% (May 23, 12:00 AM)30.35 "Hg (May 23, 12:00 AM)
Low36 °F (May 19, 6:00 AM)25% (May 25, 3:00 PM)29.51 "Hg (May 20, 3:00 PM)
Average55 °F79%30.08 "Hg
* Reported May 18 1:00 PM — Jun 2 1:00 PM, Annapolis County, Weather by CustomWeather, © 2015

Note: Actual official high and low records may vary slightly from our data, if they occured in-between our weather recording intervals... More about our weather records

Advertising

Annapolis County weather history for previous 24 hours

 ConditionsComfort  
Time TempWeatherWind HumidityBarometerVisibility
1:00 PM
Tue, Jun 2
44 °FQuite cool.8 mph96%30.23 "HgN/A
12:00 PM44 °FQuite cool.10 mph95%30.22 "HgN/A
11:00 AM44 °FQuite cool.10 mph95%30.23 "HgN/A
10:00 AM44 °FQuite cool.13 mph96%30.24 "HgN/A
9:00 AM42 °FQuite cool.9 mph100%30.26 "HgN/A
8:00 AM43 °FQuite cool.7 mph97%30.26 "HgN/A
7:00 AM43 °FQuite cool.9 mph96%30.26 "HgN/A
6:00 AM42 °FQuite cool.8 mph96%30.27 "HgN/A
5:00 AM42 °FQuite cool.8 mph96%30.29 "HgN/A
4:00 AM43 °FQuite cool.9 mph95%30.30 "HgN/A
3:00 AM42 °FQuite cool.7 mph96%30.32 "HgN/A
2:00 AM43 °FQuite cool.9 mph95%30.32 "HgN/A
1:00 AM43 °FQuite cool.6 mph95%30.32 "HgN/A
12:00 AM43 °FQuite cool.8 mph94%30.34 "HgN/A
11:00 PM
Mon, Jun 1
42 °FQuite cool.8 mph100%30.34 "HgN/A
10:00 PM44 °FQuite cool.9 mph95%30.34 "HgN/A
9:00 PM45 °FQuite cool.7 mph96%30.34 "HgN/A
8:00 PM45 °FCool.7 mph96%30.34 "HgN/A
7:00 PM44 °FQuite cool.6 mph100%30.33 "HgN/A
6:00 PM44 °FQuite cool.6 mph93%30.33 "HgN/A
5:00 PM47 °FCool.7 mph93%30.33 "HgN/A
4:00 PM46 °FCool.9 mph94%30.33 "HgN/A
3:00 PM46 °FCool.10 mph93%30.33 "HgN/A
2:00 PM47 °FCool.9 mph93%30.34 "HgN/A
Weather by CustomWeather, © 2015

See weather overviewHow to use our weather pages